Waarnemingen

Advertentie
Mijn weer
Charleville, Frankrijk (7075): temperatuur & dauwpunt: 22.05.2017 06:00:00 - 28.05.2017 06:00:00 (CEST)Charleville, Frankrijk (7075): temperatuur 5cm: 22.05.2017 06:00:00 - 28.05.2017 06:00:00 (CEST)Charleville, Frankrijk (7075): temperatuur -20cm & temperatuur -100cm: 22.05.2017 06:00:00 - 28.05.2017 06:00:00 (CEST)Charleville, Frankrijk (7075): windsnelheid & windstoten: 22.05.2017 06:00:00 - 28.05.2017 06:00:00 (CEST)Charleville, Frankrijk (7075): windrichting: 22.05.2017 06:00:00 - 28.05.2017 06:00:00 (CEST)Charleville, Frankrijk (7075): luchtdruk: 22.05.2017 06:00:00 - 28.05.2017 06:00:00 (CEST)Charleville, Frankrijk (7075): zicht: 22.05.2017 06:00:00 - 28.05.2017 06:00:00 (CEST)Charleville, Frankrijk (7075): Zonneschijnduur: 22.05.2017 06:00:00 - 28.05.2017 06:00:00 (CEST)Charleville, Frankrijk (7075): neerslag: 22.05.2017 06:00:00 - 28.05.2017 06:00:00 (CEST)
Datum & Tijd tt [°C] td [°C] tt 5cm [°C] tt -20cm [°C] tt -100cm [°C] ff [km/u] ff [kn] fx [km/u] fx [kn] dd ppp [hPa] vv [km] sd [min] rr [mm]
28.05.2017 06:00:00 15,0 14,7 12,5 18,3 12,8 1 0 2 1 O 1017,9 0,2 0 0,0
28.05.2017 05:00:00 15,5 15,2 12,7 18,4 12,8 1 1 3 2 OZO 1017,7 0,3 0 0,0
28.05.2017 04:00:00 16,3 16,0 13,9 18,5 12,8 2 1 6 3 OZO 1018,0 0,2 0 0,0
28.05.2017 03:00:00 16,9 16,6 13,7 18,6 12,8 2 1 5 3 NNW 1017,8 8 0 0,0
28.05.2017 02:00:00 17,5 17,2 14,3 18,6 12,8 2 1 6 3 Z 1017,8 1,5 0 0,0
28.05.2017 01:00:00 18,3 17,1 15,8 18,6 12,8 1 1 9 5 O 1017,5 3,5 0 0,0
28.05.2017 00:00:00 19,4 18,6 16,1 18,6 12,7 5 3 7 4 W 1017,0 18 0 0,0
27.05.2017 23:00:00 19,8 18,8 17,7 18,7 12,8 4 2 9 5 Z 1017,1 15 0 0,0
27.05.2017 22:00:00 21,0 19,5 18,7 18,6 12,7 2 1 11 6 OZO 1016,7 16 7 0,0
27.05.2017 21:00:00 24,4 19,9 22,3 18,4 12,7 4 2 26 14 ZZO 1015,7 19 26 0,0
27.05.2017 20:00:00 29,0 19,3 27,2 18,3 12,7 5 3 14 7 Z 1015,3 20 46 0,0
27.05.2017 19:00:00 30,5 18,6 28,3 18,1 12,7 4 2 18 10 Z 1014,8 20 48 0,0
27.05.2017 18:00:00 30,6 17,7 30,1 17,9 12,7 7 4 24 13 ZZW 1015,2 20 58 0,0
27.05.2017 17:00:00 29,6 17,4 29,9 17,6 12,7 10 5 23 12 ZZW 1015,3 20 50 0,0
27.05.2017 16:00:00 31,0 17,0 35,2 17,3 12,7 6 4 27 14 Z 1015,3 20 60 0,0
27.05.2017 15:00:00 29,6 17,8 35,4 17,1 12,7 13 7 29 16 ZZO 1015,6 20 60 0,0
27.05.2017 14:00:00 29,0 17,5 35,9 16,9 12,7 13 7 26 14 ZZO 1015,8 20 60 0,0
27.05.2017 13:00:00 27,3 17,8 32,6 16,8 12,7 11 6 26 14 OZO 1016,3 20 60 0,0
27.05.2017 12:00:00 26,1 15,8 32,1 16,7 12,7 17 9 29 15 OZO 1016,1 20 60 0,0
27.05.2017 11:00:00 24,4 15,1 26,4 16,8 12,7 14 8 31 17 ZO 1016,7 20 60 0,0
27.05.2017 10:00:00 22,6 13,6 23,3 16,8 12,7 15 8 35 19 OZO 1017,0 20 60 0,0
27.05.2017 09:00:00 20,6 12,8 21,7 16,9 12,7 19 10 29 16 O 1017,0 20 60 0,0
27.05.2017 08:00:00 18,8 12,8 15,5 17,0 12,7 12 6 19 11 OZO 1017,3 20 60 0,0
27.05.2017 07:00:00 14,5 12,5 7,4 17,1 12,6 4 2 9 5 O 1017,7 20 48 0,0
27.05.2017 06:00:00 11,0 9,6 6,0 17,2 12,7 3 2 11 6 NNW 1017,6 20 0 0,0
27.05.2017 05:00:00 10,3 8,7 5,9 17,4 12,7 7 4 13 7 OZO 1017,7 20 0 0,0
27.05.2017 04:00:00 9,9 9,3 5,7 17,5 12,6 5 3 8 5 OZO 1017,4 20 0 0,0
27.05.2017 03:00:00 9,8 8,9 5,9 17,7 12,7 2 1 4 2 ZO 1017,2 18 0 0,0
27.05.2017 02:00:00 10,5 9,9 6,0 17,7 12,7 2 1 3 2 OZO 1016,9 1,2 0 0,0
27.05.2017 01:00:00 11,1 9,7 6,6 17,8 12,7 1 1 5 3 OZO 1017,3 20 0 0,0
27.05.2017 00:00:00 12,4 10,8 7,6 17,9 12,6 1 1 4 2 OZO 1017,2 20 0 0,0
26.05.2017 23:00:00 14,7 11,1 8,6 17,9 12,6 1 1 7 4 WNW 1017,1 20 0 0,0
26.05.2017 22:00:00 16,9 11,2 12,1 17,9 12,6 7 4 22 12 O 1016,4 20 6 0,0
26.05.2017 21:00:00 23,4 10,4 20,3 17,8 12,6 12 7 23 12 OZO 1015,8 20 60 0,0
26.05.2017 20:00:00 25,9 10,9 24,4 17,8 12,6 15 8 39 21 OZO 1015,4 20 60 0,0
26.05.2017 19:00:00 26,9 11,0 26,3 17,6 12,6 16 9 35 19 OZO 1015,5 20 60 0,0
26.05.2017 18:00:00 27,2 12,0 27,0 17,4 12,6 17 9 35 19 ZO 1015,9 20 60 0,0
26.05.2017 17:00:00 27,2 12,4 29,3 17,2 12,6 18 10 42 23 ZO 1016,1 20 60 0,0
26.05.2017 16:00:00 26,7 12,7 31,3 17,0 12,6 19 10 35 19 OZO 1016,8 20 60 0,0
26.05.2017 15:00:00 26,1 12,2 31,9 16,8 12,6 21 12 44 24 OZO 1017,4 20 60 0,0
26.05.2017 14:00:00 26,0 12,1 29,1 16,6 12,6 23 13 46 25 OZO 1017,9 20 60 0,0
26.05.2017 13:00:00 24,8 10,6 27,9 16,5 12,5 24 13 41 22 OZO 1018,6 20 60 0,0
26.05.2017 12:00:00 23,8 11,5 28,5 16,5 12,5 17 9 31 17 OZO 1019,4 20 60 0,0
26.05.2017 11:00:00 22,6 13,1 24,9 16,5 12,5 13 7 29 15 OZO 1019,9 20 60 0,0
26.05.2017 10:00:00 21,1 12,2 22,9 16,6 12,5 18 10 29 16 OZO 1020,1 20 60 0,0
26.05.2017 09:00:00 19,5 12,5 21,6 16,7 12,5 6 4 12 7 O 1020,6 20 60 0,0
26.05.2017 08:00:00 17,1 12,8 12,7 16,8 12,5 2 1 4 2 ZO 1020,9 20 60 0,0
26.05.2017 07:00:00 11,7 10,9 4,4 17,0 12,5 1 0 5 3 NW 1021,2 16 46 0,0
26.05.2017 06:00:00 8,0 7,6 4,2 17,1 12,5 1 0 3 2 WNW 1021,4 18 0 0,0
26.05.2017 05:00:00 8,7 7,5 4,9 17,2 12,5 3 2 7 4 W 1021,1 18 0 0,0
26.05.2017 04:00:00 9,6 8,5 5,3 17,3 12,5 3 1 6 3 W 1021,1 20 0 0,0
26.05.2017 03:00:00 10,6 9,0 6,9 17,4 12,5 4 2 7 4 NNW 1021,1 20 0 0,0
26.05.2017 02:00:00 11,4 9,0 7,1 17,5 12,5 3 1 15 8 ZZO 1021,3 20 0 0,0
26.05.2017 01:00:00 14,1 10,1 9,5 17,6 12,5 4 2 10 5 Z 1021,3 20 0 0,0
26.05.2017 00:00:00 15,9 10,0 9,8 17,6 12,5 6 3 14 8 ONO 1021,2 20 0 0,0
25.05.2017 23:00:00 16,6 10,9 11,5 17,7 12,5 3 2 20 11 Z 1021,1 20 0 0,0
25.05.2017 22:00:00 18,8 10,9 15,5 17,7 12,5 9 5 19 11 ONO 1020,8 20 5 0,0
25.05.2017 21:00:00 21,2 10,7 19,3 17,6 12,4 14 7 31 17 NO 1020,2 20 60 0,0
25.05.2017 20:00:00 23,1 11,5 21,9 17,5 12,5 16 9 32 18 NO 1019,9 20 60 0,0
25.05.2017 19:00:00 24,6 11,9 24,2 17,3 12,4 14 7 27 14 NNO 1019,9 20 60 0,0
25.05.2017 18:00:00 25,2 12,4 25,1 17,2 12,5 13 7 26 14 NO 1020,2 20 60 0,0
25.05.2017 17:00:00 25,6 13,4 27,6 16,9 12,4 8 4 25 13 NNO 1020,6 20 60 0,0
25.05.2017 16:00:00 24,9 11,8 31,2 16,7 12,4 14 8 31 17 N 1021,0 20 60 0,0
25.05.2017 15:00:00 24,5 11,4 31,1 16,5 12,4 13 7 29 15 NNO 1021,8 20 60 0,0
25.05.2017 14:00:00 23,3 10,0 28,5 16,3 12,4 16 9 33 18 NNO 1022,4 20 60 0,0
25.05.2017 13:00:00 22,4 11,5 26,2 16,2 12,4 16 9 31 17 NNO 1023,0 20 60 0,0
25.05.2017 12:00:00 20,8 10,6 26,4 16,2 12,4 16 9 26 14 NNO 1023,6 20 60 0,0
25.05.2017 11:00:00 19,5 11,0 22,8 16,2 12,4 16 8 29 15 NNO 1023,9 20 60 0,0
25.05.2017 10:00:00 19,0 11,8 20,5 16,3 12,4 13 7 22 12 NO 1024,0 20 60 0,0
25.05.2017 09:00:00 17,3 12,8 18,3 16,4 12,4 8 5 20 11 O 1024,1 18 60 0,0
25.05.2017 08:00:00 15,3 13,1 11,7 16,5 12,4 3 2 10 6 ZZO 1023,8 12 60 0,0
25.05.2017 07:00:00 10,9 10,7 5,6 16,6 12,4 2 1 8 4 WNW 1024,0 7 45 0,0
25.05.2017 06:00:00 8,6 8,2 4,7 16,8 12,4 5 3 8 5 WZW 1024,0 1,6 0 0,0
25.05.2017 05:00:00 9,1 8,5 5,1 16,9 12,4 2 1 5 3 NNW 1024,2 8 0 0,0
25.05.2017 04:00:00 10,3 9,1 6,5 17,0 12,4 1 1 10 6 NW 1024,2 12 0 0,0
25.05.2017 03:00:00 10,8 10,0 6,3 17,1 12,4 5 3 9 5 NW 1024,4 20 0 0,0
25.05.2017 02:00:00 10,2 9,4 6,8 17,2 12,4 3 1 5 3 WNW 1024,7 2,7 0 0,0
25.05.2017 01:00:00 11,0 9,6 7,5 17,3 12,4 4 2 8 4 NW 1025,0 18 0 0,0
25.05.2017 00:00:00 12,7 11,4 7,9 17,3 12,4 2 1 4 2 W 1024,8 20 0 0,0
24.05.2017 23:00:00 14,4 12,3 9,8 17,3 12,4 3 2 11 6 ZO 1024,8 17 0 0,0
24.05.2017 22:00:00 17,7 12,8 13,8 17,3 12,3 8 5 13 7 N 1024,1 20 0 0,0
24.05.2017 21:00:00 19,8 13,5 16,6 17,3 12,3 4 2 19 10 N 1023,6 20 7 0,0
24.05.2017 20:00:00 21,6 13,8 21,5 17,2 12,3 13 7 24 13 N 1023,4 20 33 0,0
24.05.2017 19:00:00 22,2 12,7 22,3 17,0 12,3 12 6 23 13 N 1023,2 20 34 0,0
24.05.2017 18:00:00 22,3 12,3 22,5 16,9 12,3 14 8 24 13 N 1023,3 20 39 0,0
24.05.2017 17:00:00 23,7 12,7 24,1 16,7 12,3 11 6 23 13 WNW 1023,6 20 38 0,0
24.05.2017 16:00:00 22,1 13,4 25,8 16,5 12,3 10 5 22 12 WNW 1024,3 20 5 0,0
24.05.2017 15:00:00 21,9 11,9 26,9 16,3 12,3 9 5 21 12 W 1024,4 20 28 0,0
24.05.2017 14:00:00 21,9 12,2 27,8 16,2 12,3 9 5 22 12 WNW 1024,6 20 42 0,0
24.05.2017 13:00:00 21,4 13,1 26,6 16,1 12,3 10 5 29 16 W 1025,0 20 52 0,0
24.05.2017 12:00:00 21,2 13,4 23,4 16,0 12,3 8 4 17 9 ZW 1025,3 19 31 0,0
24.05.2017 11:00:00 19,2 13,8 24,3 16,0 12,3 4 2 10 5 WNW 1025,6 20 16 0,0
24.05.2017 10:00:00 17,7 13,2 22,8 16,1 12,3 4 2 8 4 WNW 1025,8 20 51 0,0
24.05.2017 09:00:00 15,4 12,7 19,3 16,2 12,3 3 2 8 4 WNW 1025,8 20 57 0,0
24.05.2017 08:00:00 13,0 12,2 10,1 16,3 12,3 4 2 8 4 NW 1025,6 20 52 0,0
24.05.2017 07:00:00 9,5 9,2 5,9 16,4 12,3 1 0 3 2 NNW 1025,4 8 4 0,0
24.05.2017 06:00:00 8,8 7,9 5,7 16,5 12,3 0 0 6 3 OZO 1025,1 1,2 0 0,0
24.05.2017 05:00:00 10,2 9,1 6,4 16,6 12,3 4 2 9 5 NNW 1024,6 17 0 0,0
24.05.2017 04:00:00 11,0 10,2 6,5 16,7 12,3 2 1 6 3 NO 1024,3 18 0 0,0
24.05.2017 03:00:00 13,4 11,3 7,9 16,8 12,3 8 4 13 7 WNW 1024,4 20 0 0,0
24.05.2017 02:00:00 13,3 10,7 10,1 16,9 12,3 5 3 9 5 WNW 1024,3 20 0 0,0
24.05.2017 01:00:00 14,7 11,7 9,3 16,9 12,2 5 3 8 4 WNW 1024,1 20 0 0,0
24.05.2017 00:00:00 13,8 11,5 9,5 17,0 12,2 4 2 9 5 WNW 1024,2 20 0 0,0
23.05.2017 23:00:00 15,1 12,2 12,8 17,0 12,2 1 0 5 3 N 1023,8 20 0 0,0
23.05.2017 22:00:00 15,9 11,5 12,3 17,0 12,2 2 1 11 6 WNW 1023,3 20 0 0,0
23.05.2017 21:00:00 18,6 11,7 16,2 16,9 12,2 10 5 23 12 NW 1022,5 20 30 0,0
23.05.2017 20:00:00 21,3 12,2 20,0 16,9 12,2 15 8 33 18 WNW 1021,8 20 35 0,0
23.05.2017 19:00:00 22,3 12,0 22,2 16,8 12,2 20 11 33 18 NW 1021,3 20 53 0,0
23.05.2017 18:00:00 22,3 11,1 22,6 16,6 12,2 18 10 30 16 NW 1021,1 20 60 0,0
23.05.2017 17:00:00 22,2 12,4 23,4 16,5 12,2 17 9 29 15 NW 1021,0 20 40 0,0
23.05.2017 16:00:00 21,2 12,9 24,2 16,3 12,2 16 9 36 19 NW 1021,0 20 18 0,0
23.05.2017 15:00:00 20,9 13,8 26,9 16,1 12,2 24 13 39 21 W 1020,8 20 45 0,0
23.05.2017 14:00:00 21,7 14,1 30,9 15,9 12,2 24 13 36 20 W 1020,3 20 60 0,0
23.05.2017 13:00:00 20,9 14,1 30,6 15,8 12,2 19 11 34 19 W 1020,0 20 60 0,0
23.05.2017 12:00:00 20,3 13,7 28,6 15,7 12,2 16 8 26 14 W 1020,0 20 60 0,0
23.05.2017 11:00:00 19,2 13,6 24,9 15,7 12,2 13 7 24 13 WZW 1019,5 20 60 0,0
23.05.2017 10:00:00 18,5 13,1 20,7 15,8 12,2 10 6 19 10 W 1019,0 20 60 0,0
23.05.2017 09:00:00 16,2 12,4 19,2 15,9 12,2 1 1 5 3 O 1018,7 20 60 0,0
23.05.2017 08:00:00 12,6 11,7 12,2 16,0 12,2 2 1 7 4 NW 1018,7 20 53 0,0
23.05.2017 07:00:00 9,6 9,5 5,4 16,2 12,2 3 2 6 3 NW 1018,5 10 45 0,0
23.05.2017 06:00:00 7,7 7,4 4,6 16,2 12,2 1 1 4 2 ZZW 1017,8 0,4 0 0,0
23.05.2017 05:00:00 8,7 8,6 5,3 16,4 12,2 1 0 3 2 NNW 1017,5 0,2 0 0,0
23.05.2017 04:00:00 8,9 8,6 4,9 16,5 12,2 1 1 4 2 WNW 1017,4 0,6 0 0,0
23.05.2017 03:00:00 9,3 9,0 5,0 16,5 12,2 1 0 2 1 ZO 1016,9 0,4 0 0,0
23.05.2017 02:00:00 10,3 9,5 6,1 16,6 12,2 1 1 3 2 W 1017,1 16 0 0,0
23.05.2017 01:00:00 11,8 11,0 7,6 16,7 12,2 1 1 3 2 ONO 1017,0 5 0 0,0
23.05.2017 00:00:00 13,4 12,0 10,5 16,7 12,2 1 1 3 2 WZW 1016,9 20 0 0,0
22.05.2017 23:00:00 13,7 11,7 10,3 16,7 12,2 1 1 3 1 N 1016,6 20 0 0,0
22.05.2017 22:00:00 15,6 12,9 12,4 16,6 12,1 2 1 5 3 N 1016,2 20 0 0,0
22.05.2017 21:00:00 20,5 13,0 16,0 16,5 12,1 4 2 5 3 WZW 1015,4 20 29 0,0
22.05.2017 20:00:00 23,1 8,4 20,8 16,3 12,1 4 2 10 5 W 1015,4 20 40 0,0
22.05.2017 19:00:00 23,9 11,2 23,7 16,1 12,1 4 2 10 6 Z 1015,1 20 31 0,0
22.05.2017 18:00:00 23,1 11,2 24,1 15,9 12,1 6 4 20 11 ZO 1015,6 20 0 0,0
22.05.2017 17:00:00 24,3 9,1 26,7 15,6 12,1 7 4 24 13 ZZO 1015,8 20 53 0,0
22.05.2017 16:00:00 24,2 11,5 30,0 15,4 12,1 9 5 21 12 OZO 1016,3 20 60 0,0
22.05.2017 15:00:00 23,7 12,0 29,5 15,2 12,1 10 6 25 13 ZZO 1016,6 20 60 0,0
22.05.2017 14:00:00 22,9 10,7 30,6 15,0 12,1 9 5 27 15 ZO 1017,0 20 60 0,0
22.05.2017 13:00:00 22,4 10,2 26,0 14,9 12,1 16 9 29 16 O 1017,3 20 58 0,0
22.05.2017 12:00:00 21,3 10,7 26,1 14,9 12,1 18 10 29 16 OZO 1017,9 20 60 0,0
22.05.2017 11:00:00 19,4 10,4 22,1 14,9 12,1 15 8 25 13 OZO 1018,2 20 60 0,0
22.05.2017 10:00:00 18,0 10,4 18,9 14,9 12,0 12 6 24 13 OZO 1018,8 20 60 0,0
22.05.2017 09:00:00 15,4 10,2 16,3 15,1 12,1 4 2 8 4 OZO 1019,4 20 56 0,0
22.05.2017 08:00:00 11,4 9,3 8,9 15,2 12,1 2 1 4 2 ONO 1019,4 18 60 0,0
22.05.2017 07:00:00 7,1 7,1 1,2 15,3 12,0 3 1 4 2 O 1019,7 14 45 0,0
22.05.2017 06:00:00 3,1 2,8 0,6 15,5 12,1 2 1 4 2 Z 1020,1 0,3 0 0,0

tt = temperatuur
td = dauwpunt
tt 5cm = temperatuur 5cm
tt -20cm = temperatuur -20cm
tt -100cm = temperatuur -100cm
ff = windsnelheid
fx = windstoten
dd = windrichting
ppp = luchtdruk
vv = zicht
sd = Zonneschijnduur
rr = neerslag

Weerstations in de omgeving